This demonstration page uses our WeatherBlox Daily Observations layout. Learn more.

36.17497, -115.13722

Hourly Observations for January 12, 2019

Temp ( °F °C ) Dew Point ( °F °C ) Humidity (%) Winds ( mph kmh ) Pressure ( in mb ) Visibility ( mi km ) Precip ( " mm )
12:53 am 00:53 Clear 46 7.8 28 -2.2 50 50 SW 5 7 30.12 1020 10 16.09344 0 0
1:53 am 01:53 Clear 45 7.2 28 -2.2 52 52 WSW 3 6 30.12 1020 10 16.09344 0 0
2:53 am 02:53 Clear 45 7.2 28 -2.2 52 52 SW 7 11 30.12 1020 10 16.09344 0 0
3:53 am 03:53 Clear 43 6.1 28 -2.2 56 56 Calm 30.12 1020 10 16.09344 0 0
4:53 am 04:53 Clear 42 5.6 28 -2.2 58 58 Calm 30.12 1020 10 16.09344 0 0
5:53 am 05:53 Clear 41 5 28 -2.2 60 60 W 6 9 30.12 1020 10 16.09344 0 0
6:53 am 06:53 Sunny 39 3.9 27 -2.8 62 62 N 3 6 30.15 1021 10 16.09344 0 0
7:53 am 07:53 Sunny 41 5 28 -2.2 60 60 Calm 30.15 1021 10 16.09344 0 0
8:53 am 08:53 Sunny 47 8.3 28 -2.2 48 48 SSW 5 7 30.18 1022 10 16.09344 0 0
9:53 am 09:53 Partly Cloudy 50 10 27 -2.8 41 41 SW 6 9 30.18 1022 10 16.09344 0 0
10:53 am 10:53 Cloudy 53 11.7 26 -3.3 35 35 Calm 30.15 1021 10 16.09344 0 0
11:53 am 11:53 Mostly Cloudy 53 11.7 26 -3.3 35 35 SSW 3 6 30.09 1019 10 16.09344 0 0
12:53 pm 12:53 Sunny 55 12.8 26 -3.3 33 33 SW 5 7 30.06 1018 10 16.09344 0 0
1:53 pm 13:53 Sunny 56 13.3 25 -3.9 30 30 Calm 30.06 1018 10 16.09344 0 0
2:53 pm 14:53 Sunny 56 13.3 24 -4.4 29 29 Calm 30.06 1018 10 16.09344 0 0
3:53 pm 15:53 Sunny 56 13.3 25 -3.9 30 30 WNW 6 9 30.06 1018 10 16.09344 0 0
4:53 pm 16:53 Clear 54 12.2 26 -3.3 34 34 WNW 3 6 30.06 1018 10 16.09344 0 0
5:53 pm 17:53 Cloudy 53 11.7 26 -3.3 35 35 NW 3 6 30.09 1019 10 16.09344 0 0
6:53 pm 18:53 Mostly Cloudy 53 11.7 26 -3.3 35 35 N 6 9 30.09 1019 10 16.09344 0 0
7:53 pm 19:53 Clear 53 11.7 24 -4.4 32 32 NNW 10 17 30.09 1019 10 16.09344 0 0
8:53 pm 20:53 Clear 51 10.6 24 -4.4 35 35 NNE 5 7 30.09 1019 10 16.09344 0 0
9:53 pm 21:53 Clear 49 9.4 25 -3.9 39 39 NNW 3 6 30.12 1020 10 16.09344 0 0
10:53 pm 22:53 Clear 46 7.8 25 -3.9 44 44 N 6 9 30.12 1020 10 16.09344 0 0
11:53 pm 23:53 Clear 46 7.8 24 -4.4 42 42 NNW 5 7 30.09 1019 10 16.09344 0 0

Powered by AerisWeather